Current weather by "City, St" or "zip code"  
 

Current Conditions: Richard I. Bong Airport, WI

Fair


53.0 F

Last Updated on Sep 18 2020, 10:55 am CDT
Humidity: 51%
Wind Speed: N 0.0 mph
Barometer 30.46 in
Dewpoint: 34.9 F
Visibility: 10.00 mi
Precip: --
Heat Index: NA
Wind Chill: NA
Current conditions at:

Richard I. Bong Airport, WI (KSUW)

Lat: 46.68335 Lon: 92.09254

Local Radar Image active severe weather and emergency alerts image image weather storm and storm spotter reports image weather observation monitoring service image
Local
Radar
Active
Alerts
Storm Reports Obs
Monitoring

Sign-up For Email & Text Message Weather Alert Notification Services



Advertise Here

Observation History for Richard I. Bong Airport, WI


Time Wind
(mph)
Vis
(mi)
Weather Precip (in) Temperature (F) Relative
Humidity
Wind
Chill
(F)
Heat
Index
(F)
Pressure
Air Dwpt altimeter
(in)
sea level
(mb)
Rmks
10:55 am CDT N 0.0 10.00 Fair -- 53.0 34.9 51% NA NA 30.46 M
9:55 am CDT N 0.0 10.00 Fair -- 46.0 35.4 66% NA NA 30.46 M
8:55 am CDT N 0.0 10.00 Fair -- 38.0 34.2 87% NA NA 30.46 M
7:55 am CDT N 0.0 10.00 Fair -- 28.0 27.5 96% NA NA 30.46 M
6:55 am CDT N 0.0 10.00 Fair -- 26.0 24.6 96% NA NA 30.44 M
5:55 am CDT N 0.0 10.00 Fair -- 25.0 24.4 96% NA NA 30.43 M
4:55 am CDT N 0.0 10.00 Fair -- 28.0 27.5 99% NA NA 30.42 M
3:55 am CDT N 0.0 10.00 Fair -- 28.0 27.3 98% NA NA 30.41 M
2:55 am CDT N 0.0 10.00 Fair -- 29.0 28.8 97% NA NA 30.40 M
1:55 am CDT N 0.0 10.00 Fair -- 31.0 30.7 99% NA NA 30.39 M
12:55 am CDT N 0.0 10.00 Fair -- 30.0 28.8 96% NA NA 30.38 M
11:55 pm CDT N 0.0 10.00 Fair -- 31.0 29.7 96% NA NA 30.37 M
10:55 pm CDT N 0.0 10.00 Fair -- 36.0 28.9 75% NA NA 30.36 M
9:55 pm CDT N 0.0 10.00 Fair -- 32.0 30.9 95% NA NA 30.34 M
8:55 pm CDT N 0.0 10.00 Fair -- 36.0 32.2 87% NA NA 30.32 M
7:55 pm CDT N 0.0 10.00 Mostly Cloudy -- 40.0 36.5 86% NA NA 30.30 M
6:55 pm CDT N 0.0 10.00 Fair -- 51.0 33.1 50% NA NA 30.29 M
5:55 pm CDT N 0.0 10.00 Fair -- 57.0 27.9 33% NA NA 30.28 M
4:55 pm CDT N 0.0 10.00 Fair -- 56.0 27.7 34% NA NA 30.27 M
3:55 pm CDT NE 4.6 10.00 Fair -- 58.0 29.3 34% 58 NA 30.29 M
2:55 pm CDT N 5.8 10.00 Fair -- 57.0 27.5 33% 56 NA 30.29 M
1:55 pm CDT N 4.6 10.00 Fair -- 56.0 26.6 32% 55 NA 30.31 M
12:55 pm CDT SE 3.5 10.00 Fair -- 54.0 29.3 39% NA NA 30.32 M
11:55 am CDT W 4.6 10.00 Fair -- 52.0 28.0 40% 51 NA 30.33 M

Regional Weather Observation


Duluth - Sky Harbor Airport, MN (KDYT)

Fair
48.0 F

Richard I. Bong Airport, WI (KSUW)

Fair
53.0 F

Cloquet Carlton County Airport, MN (KCOQ)

Fair
48.0 F

Moose Lake Carlton County Airport, MN (KMZH)

Fair
48.0 F

Two Harbors, MN (KTWM)

Fair
50.0 F

Eveleth-Virginia Municipal Airport, MN (KEVM)

Fair
41.0 F